Flag for U.S.A. Weather past 2 weeks in Boise, Idaho, U.S.A.

Now
100 °F

Sunny.


Feels Like: 95 °F
Forecast: 69 / 101 °F
Wind: 7 mph from Northwest

Location: Boise Air Terminal

Current Time: Aug 1, 2015 at 3:21:08 PM

Latest Report: Aug 1, 2015 at 2:53 PM


Visibility: 10 mi

Pressure: 29.85 "Hg (27.28 "Hg at 822m altitude)

Humidity: 11%

Dew point: 36 °F

Location of BoiseLocation

Historic Weather in Boise — Graph

°F

Boise temperature yesterday

Maximum temperature yesterday: 98 °F (at 4:53 PM)
Minimum temperature yesterday: 66 °F (at 6:53 AM)
Average temperature yesterday: 83 °F

Past Weeks' High & Low Weather Summary

 TemperatureHumidityPressure
High98 °F (Jul 31, 4:53 PM)84% (Jul 23, 4:53 AM)30.22 "Hg (Jul 23, 4:53 AM)
Low51 °F (Jul 28, 5:53 AM)11% (Jul 30, 4:53 PM)29.62 "Hg (Jul 21, 8:53 PM)
Average76 °F33%29.93 "Hg
* Reported Jul 17 1:53 PM — Aug 1 1:53 PM, Boise, Weather by CustomWeather, © 2015

Note: Actual official high and low records may vary slightly from our data, if they occured in-between our weather recording intervals... More about our weather records

Advertising

Boise weather history for previous 24 hours

 ConditionsComfort  
Time TempWeatherWind HumidityBarometerVisibility
1:53 PM
Sat, Aug 1
98 °FSunny.5 mph11%29.88 "Hg10 mi
12:53 PM97 °FSunny.No wind11%29.90 "Hg10 mi
11:53 AM93 °FSunny.3 mph14%29.92 "Hg10 mi
10:53 AM88 °FSunny.6 mph15%29.93 "Hg10 mi
9:53 AM84 °FSunny.7 mph19%29.94 "Hg10 mi
8:53 AM79 °FSunny.8 mph22%29.94 "Hg10 mi
7:53 AM73 °FClear.10 mph26%29.92 "Hg10 mi
6:53 AM69 °FClear.6 mph31%29.91 "Hg10 mi
5:53 AM71 °FClear.8 mph28%29.90 "Hg10 mi
4:53 AM72 °FClear.7 mph27%29.89 "Hg10 mi
3:53 AM74 °FClear.6 mph25%29.88 "Hg10 mi
2:53 AM74 °FClear.6 mph26%29.88 "Hg10 mi
1:53 AM76 °FClear.8 mph24%29.89 "Hg10 mi
12:53 AM78 °FClear.8 mph22%29.90 "Hg10 mi
11:53 PM
Fri, Jul 31
78 °FClear.6 mph24%29.89 "Hg10 mi
10:53 PM83 °FSunny.No wind23%29.90 "Hg10 mi
9:53 PM87 °FSunny.No wind21%29.90 "Hg10 mi
8:53 PM91 °FSunny.5 mph17%29.90 "Hg10 mi
7:53 PM96 °FSunny.7 mph14%29.90 "Hg10 mi
6:53 PM97 °FSunny.10 mph13%29.92 "Hg10 mi
5:53 PM98 °FSunny.13 mph11%29.94 "Hg10 mi
4:53 PM98 °FSunny.10 mph12%29.96 "Hg10 mi
3:53 PM96 °FSunny.7 mph15%29.99 "Hg10 mi
Weather by CustomWeather, © 2015

See weather overviewHow to use our weather pages